| time (UTC) | temp C | wind direction | speed KPH | gust KPH | rain 1hr cm | rain 24hr cm | rain mn cm | humidity % | barometer mb |
| 20260506180545 | 12 | 188 | 1.6 | 8.0 | 0.00 | 0.00 | 0.00 | 49 | 1012.5 |
| 20260506180058 | 12 | 220 | 0.0 | 8.0 | 0.00 | 0.00 | 0.00 | 48 | 1012.5 |
| 20260506175544 | 11 | 214 | 1.6 | 9.7 | 0.00 | 0.00 | 0.00 | 44 | 1012.7 |
| 20260506175045 | 11 | 0 | 1.6 | 9.7 | 0.00 | 0.00 | 0.00 | 46 | 1012.7 |
| 20260506174555 | 12 | 217 | 3.2 | 8.0 | 0.00 | 0.00 | 0.00 | 48 | 1012.8 |
| 20260506174044 | 12 | 187 | 1.6 | 6.4 | 0.00 | 0.00 | 0.00 | 47 | 1012.8 |
| 20260506173545 | 12 | 200 | 0.0 | 9.7 | 0.00 | 0.00 | 0.00 | 48 | 1012.9 |
| 20260506173120 | 12 | 186 | 1.6 | 9.7 | 0.00 | 0.00 | 0.00 | 43 | 1013.0 |
| 20260506172547 | 11 | 220 | 0.0 | 8.0 | 0.00 | 0.00 | 0.00 | 45 | 1012.9 |
| 20260506172045 | 11 | 46 | 0.0 | 8.0 | 0.00 | 0.00 | 0.00 | 46 | 1013.0 |
| 20260506171601 | 12 | 0 | 0.0 | 6.4 | 0.00 | 0.00 | 0.00 | 42 | 1013.0 |
| 20260506171045 | 12 | 211 | 1.6 | 6.4 | 0.00 | 0.00 | 0.00 | 46 | 1013.1 |
| 20260506170544 | 12 | 197 | 0.0 | 6.4 | 0.00 | 0.00 | 0.00 | 48 | 1013.3 |
| 20260506170104 | 12 | 0 | 0.0 | 6.4 | 0.00 | 0.00 | 0.00 | 48 | 1013.2 |
| 20260506165547 | 12 | 0 | 0.0 | 6.4 | 0.00 | 0.00 | 0.00 | 48 | 1013.3 |
| 20260506165045 | 12 | 259 | 0.0 | 3.2 | 0.00 | 0.00 | 0.00 | 46 | 1013.3 |
| 20260506164559 | 12 | 0 | 0.0 | 4.8 | 0.00 | 0.00 | 0.00 | 45 | 1013.1 |
| 20260506164048 | 11 | 0 | 0.0 | 9.7 | 0.00 | 0.00 | 0.00 | 46 | 1013.3 |
| 20260506163548 | 11 | 0 | 0.0 | 9.7 | 0.00 | 0.00 | 0.00 | 48 | 1013.3 |
| 20260506163059 | 11 | 0 | 0.0 | 8.0 | 0.00 | 0.00 | 0.00 | 46 | 1013.2 |
| 20260506162546 | 11 | 0 | 0.0 | 8.0 | 0.00 | 0.00 | 0.00 | 49 | 1013.3 |
| 20260506162047 | 11 | 150 | 0.0 | 4.8 | 0.00 | 0.00 | 0.00 | 43 | 1013.3 |
| 20260506161550 | 11 | 86 | 0.0 | 6.4 | 0.00 | 0.00 | 0.00 | 45 | 1013.2 |
| 20260506161044 | 11 | 0 | 1.6 | 6.4 | 0.00 | 0.00 | 0.00 | 49 | 1013.2 |
| 20260506160544 | 11 | 209 | 0.0 | 6.4 | 0.00 | 0.00 | 0.00 | 45 | 1013.2 |
| 20260506160108 | 11 | 169 | 0.0 | 4.8 | 0.00 | 0.00 | 0.00 | 46 | 1013.2 |
| 20260506155545 | 12 | 173 | 0.0 | 4.8 | 0.00 | 0.00 | 0.00 | 46 | 1013.0 |
| 20260506155045 | 12 | 64 | 0.0 | 8.0 | 0.00 | 0.00 | 0.00 | 49 | 1013.0 |
| 20260506154555 | 11 | 0 | 0.0 | 8.0 | 0.00 | 0.00 | 0.00 | 43 | 1013.1 |
| 20260506154045 | 11 | 0 | 0.0 | 6.4 | 0.00 | 0.00 | 0.00 | 44 | 1013.1 |
| 20260506153545 | 11 | 173 | 0.0 | 6.4 | 0.00 | 0.00 | 0.00 | 45 | 1013.1 |
| 20260506153053 | 12 | 190 | 0.0 | 6.4 | 0.00 | 0.00 | 0.00 | 49 | 1013.0 |
| 20260506152547 | 11 | 32 | 0.0 | 8.0 | 0.00 | 0.00 | 0.00 | 49 | 1012.9 |
| 20260506152045 | 10 | 0 | 0.0 | 8.0 | 0.00 | 0.00 | 0.00 | 51 | 1012.9 |
| 20260506151551 | 10 | 185 | 0.0 | 6.4 | 0.00 | 0.00 | 0.00 | 50 | 1012.9 |
| 20260506151044 | 10 | 195 | 0.0 | 3.2 | 0.00 | 0.00 | 0.00 | 49 | 1013.0 |
| 20260506150544 | 10 | 233 | 0.0 | 6.4 | 0.00 | 0.00 | 0.00 | 49 | 1013.0 |
| 20260506150057 | 10 | 0 | 0.0 | 11.3 | 0.00 | 0.00 | 0.00 | 48 | 1013.0 |
| 20260506145545 | 11 | 0 | 1.6 | 11.3 | 0.00 | 0.00 | 0.00 | 50 | 1012.9 |
| 20260506145046 | 10 | 200 | 3.2 | 11.3 | 0.00 | 0.00 | 0.00 | 50 | 1012.9 |
| 20260506144552 | 11 | 208 | 4.8 | 11.3 | 0.00 | 0.00 | 0.00 | 50 | 1012.9 |
| 20260506144044 | 11 | 0 | 0.0 | 8.0 | 0.00 | 0.00 | 0.00 | 53 | 1012.9 |
| 20260506143547 | 11 | 0 | 0.0 | 8.0 | 0.00 | 0.00 | 0.00 | 50 | 1013.0 |
| 20260506143054 | 10 | 0 | 3.2 | 8.0 | 0.00 | 0.00 | 0.00 | 54 | 1012.9 |
| 20260506142546 | 10 | 212 | 1.6 | 9.7 | 0.00 | 0.00 | 0.00 | 50 | 1012.9 |
| 20260506142050 | 10 | 231 | 3.2 | 9.7 | 0.00 | 0.00 | 0.00 | 52 | 1012.9 |
| 20260506141549 | 10 | 0 | 1.6 | 8.0 | 0.00 | 0.00 | 0.00 | 49 | 1012.9 |
| 20260506141047 | 10 | 0 | 0.0 | 8.0 | 0.00 | 0.00 | 0.00 | 53 | 1013.0 |
| 20260506140547 | 9 | 194 | 3.2 | 8.0 | 0.00 | 0.00 | 0.00 | 53 | 1012.9 |
| 20260506140053 | 9 | 0 | 3.2 | 8.0 | 0.00 | 0.00 | 0.00 | 53 | 1013.0 |
| 20260506135545 | 9 | 202 | 3.2 | 8.0 | 0.00 | 0.00 | 0.00 | 55 | 1012.9 |
| 20260506135044 | 9 | 193 | 1.6 | 6.4 | 0.00 | 0.00 | 0.00 | 52 | 1013.0 |
| 20260506134551 | 9 | 178 | 0.0 | 4.8 | 0.00 | 0.00 | 0.00 | 55 | 1013.0 |
| 20260506134044 | 8 | 189 | 1.6 | 4.8 | 0.00 | 0.00 | 0.00 | 57 | 1012.9 |
| 20260506133545 | 8 | 0 | 0.0 | 4.8 | 0.00 | 0.00 | 0.00 | 60 | 1013.0 |
| 20260506133056 | 8 | 0 | 0.0 | 8.0 | 0.00 | 0.00 | 0.00 | 61 | 1013.0 |
| 20260506132545 | 8 | 0 | 0.0 | 8.0 | 0.00 | 0.00 | 0.00 | 62 | 1013.0 |
| 20260506132045 | 8 | 210 | 1.6 | 8.0 | 0.00 | 0.00 | 0.00 | 62 | 1012.9 |
| 20260506131602 | 7 | 197 | 3.2 | 4.8 | 0.00 | 0.00 | 0.00 | 65 | 1012.9 |
| 20260506131044 | 7 | 209 | 1.6 | 4.8 | 0.00 | 0.00 | 0.00 | 63 | 1012.8 |
| 20260506130544 | 7 | 0 | 0.0 | 4.8 | 0.00 | 0.00 | 0.00 | 67 | 1012.8 |
| 20260506130057 | 7 | 211 | 0.0 | 0.0 | 0.00 | 0.00 | 0.00 | 65 | 1012.7 |
| 20260506125544 | 6 | 0 | 0.0 | 0.0 | 0.00 | 0.00 | 0.00 | 67 | 1012.7 |
| 20260506125044 | 6 | 0 | 0.0 | 0.0 | 0.00 | 0.00 | 0.00 | 68 | 1012.8 |
| 20260506124600 | 6 | 0 | 0.0 | 0.0 | 0.00 | 0.00 | 0.00 | 69 | 1012.7 |
| 20260506124046 | 6 | 0 | 0.0 | 0.0 | 0.00 | 0.00 | 0.00 | 71 | 1012.6 |
| 20260506123546 | 5 | 0 | 0.0 | 0.0 | 0.00 | 0.00 | 0.00 | 71 | 1012.6 |
| 20260506123053 | 5 | 0 | 0.0 | 0.0 | 0.00 | 0.00 | 0.00 | 73 | 1012.4 |
| 20260506122547 | 5 | 0 | 0.0 | 0.0 | 0.00 | 0.00 | 0.00 | 75 | 1012.4 |
| 20260506122046 | 5 | 0 | 0.0 | 0.0 | 0.00 | 0.00 | 0.00 | 75 | 1012.4 |
| 20260506121555 | 4 | 0 | 0.0 | 0.0 | 0.00 | 0.00 | 0.00 | 78 | 1012.4 |
| 20260506121045 | 4 | 0 | 0.0 | 0.0 | 0.00 | 0.00 | 0.00 | 79 | 1012.2 |
| 20260506120547 | 3 | 0 | 0.0 | 0.0 | 0.00 | 0.00 | 0.00 | 81 | 1012.2 |
| 20260506120053 | 3 | 0 | 0.0 | 0.0 | 0.00 | 0.00 | 0.00 | 82 | 1012.2 |
| 20260506115546 | 3 | 0 | 0.0 | 0.0 | 0.00 | 0.00 | 0.00 | 83 | 1012.2 |
| 20260506115043 | 2 | 0 | 0.0 | 0.0 | 0.00 | 0.00 | 0.00 | 85 | 1012.2 |
| 20260506114559 | 2 | 0 | 0.0 | 0.0 | 0.00 | 0.00 | 0.00 | 86 | 1012.1 |
| 20260506114047 | 2 | 0 | 0.0 | 0.0 | 0.00 | 0.00 | 0.00 | 87 | 1012.0 |
| 20260506113546 | 2 | 0 | 0.0 | 0.0 | 0.00 | 0.00 | 0.00 | 87 | 1012.0 |
| 20260506113053 | 1 | 0 | 0.0 | 0.0 | 0.00 | 0.00 | 0.00 | 87 | 1012.1 |
| 20260506112548 | 1 | 0 | 0.0 | 0.0 | 0.00 | 0.00 | 0.00 | 87 | 1012.0 |
| 20260506112045 | 1 | 0 | 0.0 | 0.0 | 0.00 | 0.00 | 0.00 | 87 | 1012.0 |
| 20260506111559 | 1 | 0 | 0.0 | 0.0 | 0.00 | 0.00 | 0.00 | 86 | 1012.0 |
| 20260506111044 | 1 | 0 | 0.0 | 0.0 | 0.00 | 0.00 | 0.00 | 86 | 1011.9 |
| 20260506110544 | 1 | 0 | 0.0 | 0.0 | 0.00 | 0.00 | 0.00 | 85 | 1011.9 |
| 20260506110050 | 1 | 0 | 0.0 | 0.0 | 0.00 | 0.00 | 0.00 | 84 | 1011.8 |
| 20260506105545 | 1 | 0 | 0.0 | 0.0 | 0.00 | 0.00 | 0.00 | 84 | 1011.6 |
| 20260506105046 | 1 | 0 | 0.0 | 0.0 | 0.00 | 0.00 | 0.00 | 83 | 1011.5 |
| 20260506104555 | 1 | 0 | 0.0 | 0.0 | 0.00 | 0.00 | 0.00 | 83 | 1011.5 |
| 20260506104048 | 1 | 0 | 0.0 | 0.0 | 0.00 | 0.00 | 0.00 | 82 | 1011.4 |
| 20260506103547 | 1 | 0 | 0.0 | 0.0 | 0.00 | 0.00 | 0.00 | 83 | 1011.4 |
| 20260506103050 | 1 | 0 | 0.0 | 0.0 | 0.00 | 0.00 | 0.00 | 83 | 1011.3 |
| 20260506102547 | 1 | 0 | 0.0 | 0.0 | 0.00 | 0.00 | 0.00 | 82 | 1011.2 |
| 20260506102047 | 1 | 0 | 0.0 | 0.0 | 0.00 | 0.00 | 0.00 | 82 | 1011.3 |
| 20260506101552 | 1 | 0 | 0.0 | 0.0 | 0.00 | 0.00 | 0.00 | 83 | 1011.3 |
| 20260506101046 | 1 | 0 | 0.0 | 0.0 | 0.00 | 0.00 | 0.00 | 83 | 1011.3 |
| 20260506100547 | 1 | 0 | 0.0 | 0.0 | 0.00 | 0.00 | 0.00 | 82 | 1011.3 |
| 20260506100051 | 1 | 0 | 0.0 | 0.0 | 0.00 | 0.00 | 0.00 | 82 | 1011.2 |
| 20260506095547 | 1 | 0 | 0.0 | 0.0 | 0.00 | 0.00 | 0.00 | 81 | 1011.3 |
| 20260506095046 | 1 | 0 | 0.0 | 0.0 | 0.00 | 0.00 | 0.00 | 81 | 1011.3 |
| 20260506094621 | 2 | 0 | 0.0 | 0.0 | 0.00 | 0.00 | 0.00 | 81 | 1011.3 |
| 20260506094045 | 2 | 0 | 0.0 | 0.0 | 0.00 | 0.00 | 0.00 | 82 | 1011.4 |
| 20260506093545 | 2 | 0 | 0.0 | 0.0 | 0.00 | 0.00 | 0.00 | 82 | 1011.5 |
| 20260506093055 | 2 | 0 | 0.0 | 0.0 | 0.00 | 0.00 | 0.00 | 82 | 1011.5 |
| 20260506092547 | 2 | 0 | 0.0 | 0.0 | 0.00 | 0.00 | 0.00 | 82 | 1011.5 |
| 20260506092047 | 2 | 0 | 0.0 | 0.0 | 0.00 | 0.00 | 0.00 | 82 | 1011.5 |
| 20260506091554 | 2 | 0 | 0.0 | 0.0 | 0.00 | 0.00 | 0.00 | 82 | 1011.3 |
| 20260506091046 | 2 | 0 | 0.0 | 0.0 | 0.00 | 0.00 | 0.00 | 82 | 1011.3 |
| 20260506090546 | 2 | 0 | 0.0 | 0.0 | 0.00 | 0.00 | 0.00 | 82 | 1011.5 |
| 20260506090053 | 2 | 0 | 0.0 | 0.0 | 0.00 | 0.00 | 0.00 | 81 | 1011.6 |
| 20260506085547 | 2 | 0 | 0.0 | 0.0 | 0.00 | 0.00 | 0.00 | 80 | 1011.4 |
| 20260506085047 | 2 | 0 | 0.0 | 0.0 | 0.00 | 0.00 | 0.00 | 80 | 1011.5 |
| 20260506084553 | 2 | 0 | 0.0 | 0.0 | 0.00 | 0.00 | 0.00 | 79 | 1011.4 |
| 20260506084047 | 2 | 0 | 0.0 | 0.0 | 0.00 | 0.00 | 0.00 | 78 | 1011.3 |
| 20260506083550 | 2 | 0 | 0.0 | 0.0 | 0.00 | 0.00 | 0.00 | 77 | 1011.3 |
| 20260506083051 | 2 | 0 | 0.0 | 0.0 | 0.00 | 0.00 | 0.00 | 76 | 1011.4 |
| 20260506082545 | 2 | 0 | 0.0 | 0.0 | 0.00 | 0.00 | 0.00 | 75 | 1011.3 |
| 20260506082045 | 2 | 0 | 0.0 | 0.0 | 0.00 | 0.00 | 0.00 | 75 | 1011.1 |
| 20260506081558 | 2 | 0 | 0.0 | 0.0 | 0.00 | 0.00 | 0.00 | 73 | 1011.1 |
| 20260506081044 | 2 | 0 | 0.0 | 0.0 | 0.00 | 0.00 | 0.00 | 72 | 1011.0 |
| 20260506080546 | 2 | 0 | 0.0 | 0.0 | 0.00 | 0.00 | 0.00 | 72 | 1011.0 |
| 20260506073057 | 3 | 0 | 0.0 | 0.0 | 0.00 | 0.00 | 0.00 | 73 | 1010.8 |
| 20260506072548 | 3 | 0 | 0.0 | 0.0 | 0.00 | 0.00 | 0.00 | 73 | 1010.7 |
| 20260506072047 | 3 | 0 | 0.0 | 0.0 | 0.00 | 0.00 | 0.00 | 73 | 1010.8 |
| 20260506071555 | 3 | 0 | 0.0 | 0.0 | 0.00 | 0.00 | 0.00 | 72 | 1010.7 |
| 20260506071046 | 3 | 0 | 0.0 | 0.0 | 0.00 | 0.00 | 0.00 | 72 | 1010.9 |
| 20260506070546 | 3 | 0 | 0.0 | 0.0 | 0.00 | 0.00 | 0.00 | 72 | 1010.7 |
| 20260506062048 | 5 | 0 | 0.0 | 0.0 | 0.00 | 0.00 | 0.00 | 65 | 1011.0 |
| 20260506061557 | 5 | 0 | 0.0 | 0.0 | 0.00 | 0.00 | 0.00 | 65 | 1011.0 |
| 20260506061047 | 5 | 0 | 0.0 | 0.0 | 0.00 | 0.00 | 0.00 | 62 | 1010.9 |
| 20260506060547 | 5 | 0 | 0.0 | 0.0 | 0.00 | 0.00 | 0.00 | 62 | 1011.0 |
| 20260506060120 | 5 | 0 | 0.0 | 0.0 | 0.00 | 0.00 | 0.00 | 62 | 1010.8 |
| 20260506051047 | 5 | 0 | 0.0 | 0.0 | 0.00 | 0.00 | 0.00 | 61 | 1011.1 |
| 20260506050547 | 5 | 0 | 0.0 | 0.0 | 0.00 | 0.00 | 0.00 | 61 | 1011.1 |
| 20260506045048 | 6 | 0 | 0.0 | 0.0 | 0.00 | 0.00 | 0.00 | 54 | 1011.1 |
| 20260506044605 | 6 | 0 | 0.0 | 0.0 | 0.00 | 0.00 | 0.00 | 53 | 1011.1 |
| 20260506044047 | 6 | 0 | 0.0 | 0.0 | 0.00 | 0.00 | 0.00 | 53 | 1011.1 |
| 20260506043544 | 6 | 0 | 0.0 | 0.0 | 0.00 | 0.00 | 0.00 | 53 | 1011.0 |
| 20260506043103 | 6 | 0 | 0.0 | 0.0 | 0.00 | 0.00 | 0.00 | 53 | 1010.9 |
| 20260506042548 | 6 | 0 | 0.0 | 0.0 | 0.00 | 0.00 | 0.00 | 51 | 1011.0 |
| 20260506042046 | 7 | 0 | 0.0 | 0.0 | 0.00 | 0.00 | 0.00 | 52 | 1011.0 |
| 20260506041559 | 7 | 0 | 0.0 | 0.0 | 0.00 | 0.00 | 0.00 | 50 | 1011.0 |
| 20260506041046 | 7 | 0 | 0.0 | 0.0 | 0.00 | 0.00 | 0.00 | 50 | 1010.9 |
| 20260506040545 | 7 | 0 | 0.0 | 0.0 | 0.00 | 0.00 | 0.00 | 49 | 1010.9 |
| 20260506040056 | 7 | 0 | 0.0 | 0.0 | 0.00 | 0.00 | 0.00 | 49 | 1010.7 |
| 20260506035546 | 7 | 0 | 0.0 | 4.8 | 0.00 | 0.00 | 0.00 | 48 | 1010.7 |
| 20260506035046 | 7 | 0 | 0.0 | 4.8 | 0.00 | 0.00 | 0.00 | 48 | 1010.5 |
| 20260506034600 | 8 | 0 | 1.6 | 8.0 | 0.00 | 0.00 | 0.00 | 47 | 1010.4 |
| 20260506034045 | 8 | 11 | 1.6 | 8.0 | 0.00 | 0.00 | 0.00 | 47 | 1010.3 |
| 20260506033545 | 8 | 24 | 3.2 | 8.0 | 0.00 | 0.00 | 0.00 | 46 | 1010.4 |
| 20260506033052 | 8 | 21 | 0.0 | 3.2 | 0.00 | 0.00 | 0.00 | 48 | 1010.4 |
| 20260506032549 | 8 | 0 | 0.0 | 3.2 | 0.00 | 0.00 | 0.00 | 47 | 1010.4 |
| 20260506032048 | 8 | 0 | 0.0 | 4.8 | 0.00 | 0.00 | 0.00 | 47 | 1010.2 |
| 20260506031559 | 8 | 30 | 0.0 | 6.4 | 0.00 | 0.00 | 0.00 | 48 | 1010.4 |
| 20260506031045 | 8 | 0 | 0.0 | 6.4 | 0.00 | 0.00 | 0.00 | 47 | 1010.2 |
| 20260506030548 | 8 | 26 | 1.6 | 6.4 | 0.00 | 0.00 | 0.00 | 47 | 1010.2 |
| 20260506030053 | 8 | 18 | 0.0 | 6.4 | 0.00 | 0.00 | 0.00 | 48 | 1010.1 |
| 20260506025547 | 8 | 5 | 1.6 | 6.4 | 0.00 | 0.00 | 0.00 | 49 | 1010.1 |
| 20260506025047 | 8 | 0 | 0.0 | 1.6 | 0.00 | 0.00 | 0.00 | 50 | 1010.1 |
| 20260506024601 | 8 | 0 | 0.0 | 1.6 | 0.00 | 0.00 | 0.00 | 49 | 1010.0 |
| 20260506024046 | 8 | 0 | 0.0 | 0.0 | 0.00 | 0.00 | 0.00 | 49 | 1010.0 |
| 20260506023547 | 8 | 0 | 0.0 | 0.0 | 0.00 | 0.00 | 0.00 | 49 | 1009.9 |
| 20260506023100 | 8 | 0 | 0.0 | 0.0 | 0.00 | 0.00 | 0.00 | 47 | 1009.9 |
| 20260506022545 | 8 | 0 | 0.0 | 0.0 | 0.00 | 0.00 | 0.00 | 47 | 1009.9 |
| 20260506022045 | 8 | 0 | 0.0 | 0.0 | 0.00 | 0.00 | 0.00 | 46 | 1009.7 |
| 20260506021553 | 9 | 0 | 0.0 | 1.6 | 0.00 | 0.00 | 0.00 | 45 | 1009.6 |
| 20260506021046 | 9 | 0 | 0.0 | 3.2 | 0.00 | 0.00 | 0.00 | 46 | 1009.6 |
| 20260506020545 | 9 | 0 | 0.0 | 3.2 | 0.00 | 0.00 | 0.00 | 44 | 1009.4 |
| 20260506020053 | 9 | 0 | 0.0 | 3.2 | 0.00 | 0.00 | 0.00 | 44 | 1009.3 |
| 20260506015545 | 9 | 0 | 0.0 | 1.6 | 0.00 | 0.00 | 0.00 | 44 | 1009.3 |
| 20260506015047 | 10 | 0 | 0.0 | 3.2 | 0.00 | 0.00 | 0.00 | 43 | 1009.2 |
| 20260506014554 | 10 | 0 | 0.0 | 4.8 | 0.00 | 0.00 | 0.00 | 43 | 1009.2 |
| 20260506014046 | 10 | 0 | 0.0 | 4.8 | 0.00 | 0.00 | 0.00 | 41 | 1009.0 |
| 20260506013548 | 10 | 0 | 1.6 | 6.4 | 0.00 | 0.00 | 0.00 | 41 | 1009.0 |
| 20260506013052 | 10 | 5 | 0.0 | 6.4 | 0.00 | 0.00 | 0.00 | 41 | 1008.9 |
| 20260506012547 | 10 | 15 | 0.0 | 4.8 | 0.00 | 0.00 | 0.00 | 41 | 1008.7 |
| 20260506012047 | 11 | 0 | 0.0 | 4.8 | 0.00 | 0.00 | 0.00 | 40 | 1008.6 |
| 20260506011550 | 11 | 0 | 0.0 | 8.0 | 0.00 | 0.00 | 0.00 | 40 | 1008.6 |
| 20260506011046 | 11 | 26 | 0.0 | 8.0 | 0.00 | 0.00 | 0.00 | 40 | 1008.5 |
| 20260506010546 | 11 | 0 | 1.6 | 8.0 | 0.00 | 0.00 | 0.00 | 39 | 1008.5 |
| 20260506010056 | 11 | 21 | 0.0 | 4.8 | 0.00 | 0.00 | 0.00 | 40 | 1008.5 |
| 20260506005545 | 11 | 0 | 0.0 | 8.0 | 0.00 | 0.00 | 0.00 | 40 | 1008.3 |
| 20260506005042 | 11 | 0 | 1.6 | 8.0 | 0.00 | 0.00 | 0.00 | 39 | 1008.3 |
| 20260506004554 | 11 | 13 | 1.6 | 6.4 | 0.00 | 0.00 | 0.00 | 38 | 1008.2 |
| 20260506004048 | 11 | 19 | 0.0 | 6.4 | 0.00 | 0.00 | 0.00 | 39 | 1008.2 |
| 20260506003545 | 11 | 29 | 0.0 | 8.0 | 0.00 | 0.00 | 0.00 | 39 | 1008.0 |
| 20260506003047 | 11 | 5 | 0.0 | 8.0 | 0.00 | 0.00 | 0.00 | 38 | 1008.1 |
| 20260506002546 | 11 | 28 | 1.6 | 8.0 | 0.00 | 0.00 | 0.00 | 38 | 1007.9 |
| 20260506002047 | 12 | 0 | 0.0 | 4.8 | 0.00 | 0.00 | 0.00 | 39 | 1007.8 |
| 20260506001551 | 12 | 0 | 0.0 | 4.8 | 0.00 | 0.00 | 0.00 | 38 | 1007.9 |
| 20260506001045 | 12 | 0 | 0.0 | 4.8 | 0.00 | 0.00 | 0.00 | 37 | 1007.9 |
| 20260506000545 | 12 | 0 | 0.0 | 3.2 | 0.00 | 0.00 | 0.00 | 39 | 1007.9 |
| 20260506000052 | 12 | 0 | 0.0 | 8.0 | 0.00 | 0.00 | 0.00 | 37 | 1007.9 |
| 20260505235546 | 12 | 0 | 0.0 | 8.0 | 0.00 | 0.00 | 0.00 | 39 | 1007.9 |
| 20260505235047 | 12 | 0 | 0.0 | 6.4 | 0.00 | 0.00 | 0.00 | 36 | 1007.8 |
| 20260505234555 | 12 | 0 | 0.0 | 11.3 | 0.00 | 0.00 | 0.00 | 38 | 1007.7 |
| 20260505234046 | 12 | 0 | 0.0 | 12.9 | 0.00 | 0.00 | 0.00 | 38 | 1007.9 |
| 20260505233546 | 12 | 0 | 1.6 | 12.9 | 0.00 | 0.00 | 0.00 | 37 | 1007.8 |
| 20260505233049 | 12 | 0 | 0.0 | 9.7 | 0.00 | 0.00 | 0.00 | 37 | 1007.7 |
| 20260505232547 | 12 | 0 | 0.0 | 9.7 | 0.00 | 0.00 | 0.00 | 37 | 1007.7 |
| 20260505232046 | 12 | 0 | 0.0 | 4.8 | 0.00 | 0.00 | 0.00 | 37 | 1007.6 |
| 20260505231601 | 12 | 0 | 0.0 | 9.7 | 0.00 | 0.00 | 0.00 | 38 | 1007.8 |
| 20260505231045 | 13 | 0 | 0.0 | 9.7 | 0.00 | 0.00 | 0.00 | 39 | 1007.8 |
| 20260505230545 | 13 | 21 | 0.0 | 4.8 | 0.00 | 0.00 | 0.00 | 37 | 1007.7 |
| 20260505230057 | 13 | 0 | 0.0 | 4.8 | 0.00 | 0.00 | 0.00 | 38 | 1007.7 |
| 20260505225547 | 13 | 0 | 0.0 | 3.2 | 0.00 | 0.00 | 0.00 | 40 | 1007.8 |
| 20260505225048 | 13 | 183 | 0.0 | 3.2 | 0.00 | 0.00 | 0.00 | 36 | 1007.7 |
| 20260505224552 | 13 | 0 | 0.0 | 3.2 | 0.00 | 0.00 | 0.00 | 37 | 1007.8 |
| 20260505224047 | 13 | 0 | 0.0 | 3.2 | 0.00 | 0.00 | 0.00 | 39 | 1007.9 |
| 20260505223546 | 13 | 0 | 0.0 | 3.2 | 0.00 | 0.00 | 0.00 | 40 | 1007.8 |
| 20260505223050 | 13 | 0 | 0.0 | 8.0 | 0.00 | 0.00 | 0.00 | 35 | 1007.7 |
| 20260505222547 | 13 | 0 | 0.0 | 8.0 | 0.00 | 0.00 | 0.00 | 38 | 1007.7 |
| 20260505222046 | 13 | 0 | 1.6 | 8.0 | 0.00 | 0.00 | 0.00 | 35 | 1007.7 |
| 20260505221554 | 13 | 205 | 0.0 | 4.8 | 0.00 | 0.00 | 0.00 | 39 | 1007.7 |
| 20260505221046 | 13 | 0 | 0.0 | 6.4 | 0.00 | 0.00 | 0.00 | 36 | 1007.6 |
| 20260505220545 | 13 | 205 | 1.6 | 6.4 | 0.00 | 0.00 | 0.00 | 37 | 1007.5 |
| 20260505220055 | 13 | 0 | 1.6 | 6.4 | 0.00 | 0.00 | 0.00 | 35 | 1007.6 |
| 20260505215545 | 13 | 184 | 0.0 | 6.4 | 0.00 | 0.00 | 0.00 | 36 | 1007.5 |
| 20260505215045 | 13 | 0 | 0.0 | 9.7 | 0.00 | 0.00 | 0.00 | 38 | 1007.6 |
| 20260505214552 | 13 | 0 | 0.0 | 9.7 | 0.00 | 0.00 | 0.00 | 39 | 1007.7 |
| 20260505214044 | 13 | 0 | 0.0 | 8.0 | 0.00 | 0.00 | 0.00 | 37 | 1007.6 |
| 20260505213546 | 13 | 205 | 0.0 | 16.1 | 0.00 | 0.00 | 0.00 | 40 | 1007.6 |
| 20260505213057 | 13 | 0 | 0.0 | 16.1 | 0.00 | 0.00 | 0.00 | 35 | 1007.5 |
| 20260505212547 | 14 | 286 | 3.2 | 16.1 | 0.00 | 0.00 | 0.00 | 33 | 1007.5 |
| 20260505212044 | 15 | 0 | 3.2 | 12.9 | 0.00 | 0.00 | 0.00 | 36 | 1007.5 |
| 20260505211551 | 15 | 0 | 1.6 | 9.7 | 0.00 | 0.00 | 0.00 | 36 | 1007.6 |
| 20260505211046 | 14 | 0 | 0.0 | 8.0 | 0.00 | 0.00 | 0.00 | 40 | 1007.4 |
| 20260505210543 | 15 | 59 | 0.0 | 6.4 | 0.00 | 0.00 | 0.00 | 38 | 1007.5 |
| 20260505210051 | 15 | 40 | 0.0 | 11.3 | 0.00 | 0.00 | 0.00 | 42 | 1007.5 |
| 20260505205545 | 13 | 0 | 1.6 | 11.3 | 0.00 | 0.00 | 0.00 | 42 | 1007.7 |
| 20260505205048 | 14 | 0 | 1.6 | 6.4 | 0.00 | 0.00 | 0.00 | 40 | 1007.6 |
| 20260505204554 | 14 | 180 | 0.0 | 6.4 | 0.00 | 0.00 | 0.00 | 36 | 1007.8 |
| 20260505204042 | 14 | 0 | 1.6 | 6.4 | 0.00 | 0.00 | 0.00 | 40 | 1007.7 |
| 20260505203544 | 14 | 0 | 0.0 | 6.4 | 0.00 | 0.00 | 0.00 | 37 | 1007.8 |
| 20260505203100 | 15 | 0 | 0.0 | 6.4 | 0.00 | 0.00 | 0.00 | 43 | 1007.8 |
| 20260505202544 | 14 | 230 | 0.0 | 8.0 | 0.00 | 0.00 | 0.00 | 39 | 1007.8 |
| 20260505202045 | 15 | 222 | 0.0 | 8.0 | 0.00 | 0.00 | 0.00 | 42 | 1007.9 |
| 20260505201552 | 15 | 204 | 1.6 | 6.4 | 0.00 | 0.00 | 0.00 | 38 | 1008.1 |
| 20260505201044 | 14 | 225 | 0.0 | 6.4 | 0.00 | 0.00 | 0.00 | 43 | 1008.0 |
| 20260505200544 | 14 | 98 | 1.6 | 6.4 | 0.00 | 0.00 | 0.00 | 40 | 1008.0 |
| 20260505200049 | 15 | 0 | 0.0 | 9.7 | 0.00 | 0.00 | 0.00 | 41 | 1008.1 |
| 20260505195544 | 14 | 0 | 1.6 | 9.7 | 0.00 | 0.00 | 0.00 | 40 | 1008.2 |
| 20260505195044 | 14 | 179 | 1.6 | 8.0 | 0.00 | 0.00 | 0.00 | 40 | 1008.2 |
| 20260505194551 | 14 | 36 | 0.0 | 4.8 | 0.00 | 0.00 | 0.00 | 38 | 1008.4 |
| 20260505194044 | 14 | 0 | 0.0 | 14.5 | 0.00 | 0.00 | 0.00 | 39 | 1008.2 |
| 20260505193544 | 14 | 0 | 0.0 | 14.5 | 0.00 | 0.00 | 0.00 | 37 | 1008.4 |
| 20260505193048 | 14 | 58 | 1.6 | 14.5 | 0.00 | 0.00 | 0.00 | 37 | 1008.4 |
| 20260505192548 | 14 | 0 | 0.0 | 9.7 | 0.00 | 0.00 | 0.00 | 41 | 1008.4 |
| 20260505192044 | 14 | 227 | 0.0 | 11.3 | 0.00 | 0.00 | 0.00 | 40 | 1008.4 |
| 20260505191608 | 14 | 0 | 3.2 | 11.3 | 0.00 | 0.00 | 0.00 | 40 | 1008.5 |
| 20260505191044 | 14 | 0 | 1.6 | 8.0 | 0.00 | 0.00 | 0.00 | 41 | 1008.5 |
| 20260505190545 | 14 | 0 | 0.0 | 9.7 | 0.00 | 0.00 | 0.00 | 43 | 1008.4 |
| 20260505190047 | 13 | 199 | 0.0 | 9.7 | 0.00 | 0.00 | 0.00 | 39 | 1008.5 |
| 20260505185544 | 13 | 0 | 1.6 | 9.7 | 0.00 | 0.00 | 0.00 | 41 | 1008.4 |
| 20260505185044 | 14 | 210 | 0.0 | 6.4 | 0.00 | 0.00 | 0.00 | 41 | 1008.3 |
| 20260505184549 | 14 | 0 | 1.6 | 6.4 | 0.00 | 0.00 | 0.00 | 38 | 1008.2 |
| 20260505184045 | 15 | 211 | 0.0 | 6.4 | 0.00 | 0.00 | 0.00 | 38 | 1008.2 |
| 20260505183542 | 14 | 0 | 0.0 | 11.3 | 0.00 | 0.00 | 0.00 | 41 | 1008.0 |
| 20260505183051 | 13 | 0 | 1.6 | 12.9 | 0.00 | 0.00 | 0.00 | 39 | 1008.1 |
| 20260505182544 | 14 | 34 | 1.6 | 12.9 | 0.00 | 0.00 | 0.00 | 38 | 1008.1 |
| 20260505182047 | 14 | 236 | 1.6 | 12.9 | 0.00 | 0.00 | 0.00 | 36 | 1008.0 |
| 20260505181549 | 13 | 317 | 1.6 | 9.7 | 0.00 | 0.00 | 0.00 | 38 | 1008.0 |
| 20260505181044 | 13 | 0 | 0.0 | 6.4 | 0.00 | 0.00 | 0.00 | 37 | 1007.9 |